EW2725 Weather Reports


Display with metric or nautical units.
time (UTC)temp
F
wind
direction
speed
MPH
gust
MPH
rain 1hr
in
rain 24hr
in
rain mn
in
humidity
%
barometer
mb
20260902031613 60 243 0.0 0.0 0.00 0.00 0.09 89 1100.1
20260902030123 59 243 0.0 0.0 0.00 0.00 0.09 89 1100.1
20260902024633 59 243 0.0 0.0 0.00 0.00 0.09 89 1100.1
20260902023005 60 243 0.0 0.0 0.00 0.00 0.09 90 1100.1
20260902021608 59 243 0.0 0.0 0.00 0.00 0.09 90 1100.1
20260902020142 59 243 0.0 0.0 0.00 0.00 0.09 89 1100.1
20260902014515 60 243 0.0 0.0 0.00 0.00 0.09 89 1100.1
20260902013109 59 243 0.0 0.0 0.00 0.00 0.09 89 1100.1
20260902011608 59 243 0.0 0.0 0.00 0.00 0.09 89 1100.1
20260902010113 59 243 0.0 0.0 0.00 0.00 0.09 89 1100.1
20260902004646 60 243 0.0 0.0 0.00 0.00 0.09 89 1100.1
20260902003134 60 243 0.0 0.0 0.00 0.00 0.09 89 1100.1
20260902001635 61 243 0.0 0.0 0.00 0.00 0.09 89 1100.1
20260902000139 61 243 0.0 0.0 0.00 0.00 0.09 89 1100.1
20260901234642 61 243 0.0 0.0 0.00 0.00 0.09 89 1100.1
20260901233139 62 243 0.0 0.0 0.00 0.00 0.09 89 1100.1
20260901231632 62 243 0.0 0.0 0.00 0.00 0.09 89 1100.1
20260901230130 62 243 0.0 0.0 0.00 0.00 0.09 89 1100.1
20260901224635 63 243 0.0 0.0 0.00 0.00 0.09 89 1100.1
20260901210133 63 243 0.0 0.0 0.00 0.00 0.09 88 1100.1
20260901201515 63 243 0.0 0.0 0.00 0.00 0.09 88 1100.1
20260901200105 63 243 0.0 0.0 0.00 0.00 0.08 88 1100.1
20260901194648 62 243 1.0 0.0 0.00 0.00 0.08 87 1100.1
20260901193128 62 243 0.0 0.0 0.00 0.00 0.07 88 1100.1
20260901191515 62 243 2.0 0.0 0.00 0.00 0.07 87 1100.1
20260901190012 63 243 0.0 0.0 0.00 0.00 0.07 87 1100.1
20260901184611 63 243 0.0 0.0 0.00 0.00 0.06 85 1100.1
20260901183011 64 243 0.0 0.0 0.00 0.00 0.01 83 1100.1
20260901181624 65 243 1.0 0.0 0.00 0.00 0.00 81 1100.1
20260901180153 65 243 2.0 0.0 0.00 0.00 0.00 80 1100.1
20260901174647 66 243 1.0 0.0 0.00 0.00 0.00 79 1100.1
20260901173102 65 243 2.0 0.0 0.00 0.00 0.00 79 1100.1
20260901171626 67 243 3.0 0.0 0.00 0.00 0.00 75 1100.1
20260901170125 68 230 3.0 0.0 0.00 0.00 0.00 71 1100.1
20260901164615 70 253 2.0 0.0 0.00 0.00 0.00 69 1100.1
20260901163014 70 253 2.0 0.0 0.00 0.00 0.00 71 1100.1
20260901161657 70 220 3.0 0.0 0.00 0.00 0.00 72 1100.1
20260901160137 71 227 4.0 0.0 0.00 0.00 0.00 74 1100.1
20260901154627 71 225 2.0 0.0 0.00 0.00 0.00 76 1100.1
20260901153144 71 66 4.0 0.0 0.00 0.00 0.00 75 1100.1
20260901151627 71 264 2.0 0.0 0.00 0.00 0.00 77 1100.1
20260901150134 71 264 2.0 0.0 0.00 0.00 0.00 80 1100.1
20260901144641 70 264 1.0 0.0 0.00 0.00 0.00 81 1100.1
20260901143114 69 264 0.0 0.0 0.00 0.00 0.00 83 1100.1
20260901141530 69 264 0.0 0.0 0.00 0.00 0.00 84 1100.1
20260901140015 69 264 0.0 0.0 0.00 0.00 0.00 85 1100.1
20260901134633 69 264 0.0 0.0 0.00 0.00 0.00 84 1100.1
20260901133125 69 264 0.0 0.0 0.00 0.00 0.00 84 1100.1
20260901131622 68 264 0.0 0.0 0.00 0.00 0.00 83 1100.1
20260901130121 68 264 0.0 0.0 0.00 0.00 0.00 83 1100.1
20260901124619 68 264 0.0 0.0 0.00 0.00 0.00 83 1100.1
20260901123115 68 264 0.0 0.0 0.00 0.00 0.00 83 1100.1
20260901121617 67 264 0.0 0.0 0.00 0.00 0.00 83 1100.1
20260901120122 67 264 0.0 0.0 0.00 0.00 0.00 84 1100.1
20260901114618 67 264 0.0 0.0 0.00 0.00 0.00 84 1100.1
20260901113112 66 264 0.0 0.0 0.00 0.00 0.00 85 1100.1
20260901111610 66 264 0.0 0.0 0.00 0.00 0.00 85 1100.1
20260901110134 65 264 0.0 0.0 0.00 0.00 0.00 85 1100.1
20260901104624 65 264 0.0 0.0 0.00 0.00 0.00 86 1100.1
20260901103123 65 264 0.0 0.0 0.00 0.00 0.00 85 1100.1
20260901101627 64 264 0.0 0.0 0.00 0.00 0.00 85 1100.1
20260901100132 64 264 0.0 0.0 0.00 0.00 0.00 86 1100.1
20260901094631 65 264 0.0 0.0 0.00 0.00 0.00 86 1100.1
20260901093138 64 264 0.0 0.0 0.00 0.00 0.00 86 1100.1
20260901091502 65 264 0.0 0.0 0.00 0.00 0.00 86 1100.1
20260901090145 64 264 0.0 0.0 0.00 0.00 0.00 86 1100.1
20260901084640 64 264 0.0 0.0 0.00 0.00 0.00 86 1100.1
20260901083124 64 264 0.0 0.0 0.00 0.00 0.00 86 1100.1
20260901081630 64 264 0.0 0.0 0.00 0.00 0.00 86 1100.1
20260901080136 64 264 0.0 0.0 0.00 0.00 0.00 86 1100.1
20260901074631 64 264 0.0 0.0 0.00 0.00 0.00 86 1100.1
20260901073113 64 264 0.0 0.0 0.00 0.00 0.00 87 1100.1
20260901071617 63 264 0.0 0.0 0.00 0.00 0.00 86 1100.1
20260901070125 64 264 0.0 0.0 0.00 0.00 0.00 86 1100.1
20260901064614 64 264 0.0 0.0 0.00 0.00 0.00 86 1100.1
20260901063118 63 264 0.0 0.0 0.00 0.00 0.00 86 1100.1
20260901061625 63 264 0.0 0.0 0.00 0.00 0.00 86 1100.1
20260901060131 63 264 0.0 0.0 0.00 0.00 0.00 85 1100.1
20260901054628 64 264 0.0 0.0 0.00 0.00 0.00 85 1100.1
20260901053121 64 264 0.0 0.0 0.00 0.00 0.00 85 1100.1
20260901051628 64 264 0.0 0.0 0.00 0.00 0.00 85 1100.1
20260901050113 65 264 0.0 0.0 0.00 0.00 0.00 84 1100.1
20260901044642 65 264 0.0 0.0 0.00 0.00 0.05 84 1100.1
20260901043134 65 264 0.0 0.0 0.00 0.00 0.05 84 1100.1
20260901041638 65 264 0.0 0.0 0.00 0.00 0.05 84 1100.1
20260901040011 65 264 0.0 0.0 0.00 0.00 0.05 85 1100.1
20260901034639 65 264 0.0 0.0 0.00 0.00 0.05 85 1100.1
20260901033130 65 264 0.0 0.0 0.00 0.00 0.05 85 1100.1